• Join FlightAware (Why Join?)
  • Login
  • US Flag GB Flag 
06:22 EST


 

Airport Tracker/Info


-or-


 

Live Flight TrackerFlight Track Log ✈ DAL1562 ✈ 09-Apr-2013 ✈ KDTW - KPHL

Flight Track Log - Related Links

Times and Time Zones

All times are in EDT time to prevent confusion due to time zone crossing. See the DAL1562 flight status page for this flight to view local times or setup timezone preferences in your user account.

Time Position Orientation Groundspeed Altitude Reporting Facility
EDT Latitude Longitude Course Direction KTS MPH feet Rate Location/Type
14:42 42.1994 -83.3608 165° South 167 192 1,600  Level Cleveland Center
14:42 42.1892 -83.3572 165° South 175 201 2,200 1,714 Climbing FAA TRACON SMA TRACON (SMA)
14:43 42.1744 -83.3556 175° South 202 232 2,600 2,400 Climbing FAA TRACON SMA TRACON (SMA)
14:43 42.1517 -83.3508 171° South 221 254 3,800 3,450 Climbing FAA TRACON SMA TRACON (SMA)
14:43 42.1289 -83.3453 170° South 236 272 4,900 3,000 Climbing FAA TRACON SMA TRACON (SMA)
14:44 42.1114 -83.3406 169° South 238 274 5,800 3,150 Climbing FAA TRACON SMA TRACON (SMA)
14:44 42.0911 -83.3194 142° Southeast 278 320 7,000 3,150 Climbing FAA TRACON SMA TRACON (SMA)
14:44 42.0786 -83.2853 116° Southeast 307 353 7,900 3,000 Climbing FAA TRACON SMA TRACON (SMA)
14:45 42.0808 -83.2489 85° East 318 366 9,000 3,450 Climbing FAA TRACON SMA TRACON (SMA)
14:45 42.0892 -83.2039 76° East 323 372 10,200 2,700 Climbing FAA TRACON SMA TRACON (SMA)
14:45 42.0972 -83.1667 74° East 336 387 10,800 1,350 Climbing FAA TRACON SMA TRACON (SMA)
14:46 42.1058 -83.1250 74° East 379 436 11,100 1,200 Climbing FAA TRACON SMA TRACON (SMA)
14:46 42.1164 -83.0697 76° East 407 468 11,600 1,350 Climbing FAA TRACON SMA TRACON (SMA)
14:46 42.1247 -83.0233 76° East 415 478 12,000 1,800 Climbing FAA TRACON SMA TRACON (SMA)
14:47 42.1333 -82.9753 76° East 426 490 12,800 2,850 Climbing FAA TRACON SMA TRACON (SMA)
14:47 42.1439 -82.9142 77° East 435 501 13,900 2,700 Climbing FAA TRACON SMA TRACON (SMA)
14:47 42.1525 -82.8650 77° East 437 503 14,600 2,400 Climbing FAA TRACON SMA TRACON (SMA)
14:48 42.1636 -82.8019 77° East 445 512 15,500 2,400 Climbing FAA TRACON SMA TRACON (SMA)
14:48 42.1708 -82.7503 79° East 455 524 16,200 2,195 Climbing FAA TRACON SMA TRACON (SMA)
14:48 42.1706 -82.6969 90° East 462 532 17,000 2,250 Climbing FAA TRACON SMA TRACON (SMA)
14:49 42.1631 -82.6450 101° East 463 533 17,700 2,462 Climbing FAA TRACON SMA TRACON (SMA)
14:49 42.1444 -82.5844 112° Southeast 461 531 18,600 2,250 Climbing FAA TRACON SMA TRACON (SMA)
14:49 42.1250 -82.5383 120° Southeast 460 529 19,200 1,800 Climbing FAA TRACON SMA TRACON (SMA)
14:50 42.1056 -82.4922 120° Southeast 462 532 19,800 2,100 Climbing FAA TRACON SMA TRACON (SMA)
14:50 42.0603 -82.3869 120° Southeast 467 537 21,300 2,200 Climbing FAA TRACON SMA TRACON (SMA)
14:51 42.0392 -82.3378 120° Southeast 469 540 22,000 2,400 Climbing FAA TRACON SMA TRACON (SMA)
14:51 42.0142 -82.2789 120° Southeast 471 542 22,900 2,100 Climbing FAA TRACON SMA TRACON (SMA)
14:51 41.9942 -82.2317 120° Southeast 471 542 23,400 1,171 Climbing FAA TRACON SMA TRACON (SMA)
14:52 41.9842 -82.2083 120° Southeast 472 543 23,700 450 Climbing FAA TRACON SMA TRACON (SMA)
14:52 41.9842 -82.2083 217° Southwest 472 543 23,700 1,400 Level FAA TRACON SMA TRACON (SMA)
14:53 41.8703 -81.9578 121° Southeast 481 554 25,800 1,878 Climbing Cleveland Center
14:54 41.8014 -81.7975 120° Southeast 489 563 27,800 1,850 Climbing Cleveland Center
14:55 41.7319 -81.6433 121° Southeast 489 563 29,500 1,550 Climbing Cleveland Center
14:56 41.6564 -81.4753 121° Southeast 489 563 30,900 750 Climbing Cleveland Center
14:57 41.5867 -81.3217 121° Southeast 489 563 31,000 50 Climbing Cleveland Center
14:58 41.5167 -81.1656 121° Southeast 489 563 31,000  Level Cleveland Center
14:59 41.4253 -81.0400 134° Southeast 481 554 31,000  Level Cleveland Center
15:00 41.3342 -80.9067 132° Southeast 481 554 31,000  Level Cleveland Center
15:01 41.2406 -80.7792 134° Southeast 481 554 31,000  Level Cleveland Center
15:02 41.1553 -80.6631 134° Southeast 486 559 31,000  Level Cleveland Center
15:03 41.0636 -80.5336 133° Southeast 486 559 31,000  Level Cleveland Center
15:04 40.9697 -80.4072 135° Southeast 486 559 31,000  Level Cleveland Center
15:05 40.8736 -80.2756 134° Southeast 486 559 31,000  Level Cleveland Center
15:06 40.7897 -80.1197 125° Southeast 486 559 31,000  Level Cleveland Center
15:07 40.7367 -79.9692 115° Southeast 486 559 31,000  Level Cleveland Center
15:08 40.6711 -79.7919 116° Southeast 486 559 31,000  Level Cleveland Center
15:09 40.6156 -79.6286 114° Southeast 486 559 31,000  Level Cleveland Center
15:10 40.5619 -79.4625 113° Southeast 486 559 31,000  Level Cleveland Center
15:11 40.5375 -79.3208 103° East 486 559 31,000  Level Cleveland Center
15:12 40.5083 -79.1303 101° East 486 559 31,000  Level Cleveland Center
15:13 40.4767 -78.9536 103° East 486 559 31,000  Level Cleveland Center
15:14 40.4489 -78.7797 102° East 486 559 31,000  Level Cleveland Center
15:15 40.4211 -78.6031 102° East 486 559 31,000  Level Cleveland Center
15:16 40.3908 -78.4267 103° East 486 559 31,000 -222 Level Cleveland Center
15:17 40.3786 -78.3544 103° East 488 562 30,700 -2,707 Descending New York Center
15:18 40.3500 -78.1822 102° East 488 562 27,300 -2,898 Descending New York Center
15:19 40.3208 -78.0103 102° East 488 562 25,000 -1,169 Descending New York Center
15:20 40.3103 -77.8403 95° East 477 549 25,000 -1,091 Level New York Center
15:21 40.3067 -77.6928 92° East 466 536 22,800 -1,686 Descending New York Center
15:22 40.2892 -77.5278 98° East 461 531 21,600 -1,869 Descending New York Center
15:23 40.2633 -77.3539 101° East 445 512 19,000 -1,815 Descending New York Center
15:24 40.2500 -77.2167 97° East 426 490 18,000 -508 Descending New York Center
15:25 40.2314 -77.0597 99° East 404 465 18,000  Level New York Center
15:26 40.2167 -76.9061 97° East 411 473 18,000  Level New York Center
15:27 40.1994 -76.7525 98° East 425 489 18,000  Level New York Center
15:28 40.1833 -76.6153 99° East 432 497 18,000 -694 Level New York Center
15:29 40.1658 -76.4642 99° East 426 490 16,600 -1,846 Descending New York Center
15:29 40.1550 -76.3731 99° East 412 474 15,200 -2,694 Descending FAA TRACON SMA TRACON (SMA)
15:29 40.1500 -76.3283 98° East 409 471 14,400 -2,615 Descending FAA TRACON SMA TRACON (SMA)
15:30 40.1456 -76.2836 97° East 408 470 13,500 -2,769 Descending FAA TRACON SMA TRACON (SMA)
15:30 40.1389 -76.2275 99° East 406 467 12,600 -2,250 Descending FAA TRACON SMA TRACON (SMA)
15:30 40.1333 -76.1836 99° East 402 463 12,000 -1,800 Descending FAA TRACON SMA TRACON (SMA)
15:31 40.1283 -76.1311 97° East 396 456 11,400 -1,500 Descending FAA TRACON SMA TRACON (SMA)
15:31 40.1169 -76.0483 100° East 374 430 10,500 -1,180 Descending FAA TRACON SMA TRACON (SMA)
15:32 40.1139 -76.0094 96° East 351 404 10,200 -750 Descending FAA TRACON SMA TRACON (SMA)
15:32 40.1081 -75.9631 99° East 336 387 10,000 -1,050 Descending FAA TRACON SMA TRACON (SMA)
15:32 40.1033 -75.9275 100° East 328 377 9,500 -1,200 Descending FAA TRACON SMA TRACON (SMA)
15:33 40.0992 -75.8917 99° East 324 373 9,200 -1,350 Descending FAA TRACON SMA TRACON (SMA)
15:33 40.0939 -75.8492 99° East 319 367 8,600 -1,650 Descending FAA TRACON SMA TRACON (SMA)
15:33 40.0897 -75.8133 99° East 317 365 8,100 -1,050 Descending FAA TRACON SMA TRACON (SMA)
15:34 40.0858 -75.7792 98° East 313 360 7,900 -750 Descending FAA TRACON SMA TRACON (SMA)
15:34 40.0814 -75.7367 98° East 310 357 7,600 -900 Descending FAA TRACON SMA TRACON (SMA)
15:34 40.0800 -75.7025 93° East 310 357 7,300 -750 Descending FAA TRACON SMA TRACON (SMA)
15:35 40.0781 -75.6608 93° East 301 346 7,100 -600 Descending FAA TRACON SMA TRACON (SMA)
15:35 40.0769 -75.6272 92° East 299 344 6,900 -600 Descending FAA TRACON SMA TRACON (SMA)
15:35 40.0756 -75.5956 93° East 297 342 6,700 -837 Descending FAA TRACON SMA TRACON (SMA)
15:36 40.0733 -75.5619 95° East 295 339 6,300 -1,116 Descending FAA TRACON SMA TRACON (SMA)
15:36 40.0714 -75.5208 94° East 293 337 5,900 -486 Descending FAA TRACON SMA TRACON (SMA)
15:36 40.0706 -75.4889 92° East 291 335 6,000 162 Climbing FAA TRACON SMA TRACON (SMA)
15:37 40.0681 -75.4567 96° East 290 334 6,000  Level FAA TRACON SMA TRACON (SMA)
15:37 40.0669 -75.4156 92° East 290 334 6,000  Level FAA TRACON SMA TRACON (SMA)
15:37 40.0650 -75.3833 94° East 289 333 6,000 -150 Level FAA TRACON SMA TRACON (SMA)
15:38 40.0633 -75.3511 94° East 290 334 5,900  Descending FAA TRACON SMA TRACON (SMA)
15:38 40.0608 -75.3114 95° East 286 329 6,000  Climbing FAA TRACON SMA TRACON (SMA)
15:38 40.0558 -75.2808 102° East 300 345 5,900  Descending FAA TRACON SMA TRACON (SMA)
15:39 40.0517 -75.2469 99° East 293 337 6,000 150 Climbing FAA TRACON SMA TRACON (SMA)
15:39 40.0478 -75.2142 99° East 288 331 6,000  Level FAA TRACON SMA TRACON (SMA)
15:39 40.0431 -75.1744 99° East 288 331 6,000  Level FAA TRACON SMA TRACON (SMA)
15:40 40.0389 -75.1425 100° East 290 334 6,000 -150 Level FAA TRACON SMA TRACON (SMA)
15:40 40.0328 -75.1108 104° East 288 331 5,900 -900 Descending FAA TRACON SMA TRACON (SMA)
15:40 40.0119 -75.0842 136° Southeast 274 315 5,400 -1,500 Descending FAA TRACON SMA TRACON (SMA)
15:41 39.9931 -75.0667 145° Southeast 267 307 4,900 -1,800 Descending FAA TRACON SMA TRACON (SMA)
15:41 39.9744 -75.0489 144° Southeast 265 305 4,200 -1,950 Descending FAA TRACON SMA TRACON (SMA)
15:41 39.9492 -75.0361 159° South 253 291 3,600 -1,350 Descending FAA TRACON SMA TRACON (SMA)
15:42 39.9306 -75.0422 194° South 217 250 3,300 -1,200 Descending FAA TRACON SMA TRACON (SMA)
15:42 39.9136 -75.0519 204° Southwest 213 245 2,800 -1,500 Descending FAA TRACON SMA TRACON (SMA)
15:42 39.9039 -75.0753 241° Southwest 187 215 2,300 -1,200 Descending FAA TRACON SMA TRACON (SMA)
15:43 39.9006 -75.0936 257° West 177 204 2,000 -900 Descending FAA TRACON SMA TRACON (SMA)
15:43 39.8969 -75.1119 256° West 172 198 1,700 -1,050 Descending FAA TRACON SMA TRACON (SMA)
15:43 39.8925 -75.1350 256° West 169 194 1,300 -900 Descending FAA TRACON SMA TRACON (SMA)
15:44 39.8897 -75.1494 256° West 145 167 1,100 -600 Descending FAA TRACON SMA TRACON (SMA)
15:44 39.8869 -75.1636 256° West 144 166 900 -750 Descending FAA TRACON SMA TRACON (SMA)
15:44 39.8831 -75.1828 255° West 138 159 600 -698 Descending FAA TRACON SMA TRACON (SMA)
15:45 39.8803 -75.1978 256° West 136 157 400 -698 Descending FAA TRACON SMA TRACON (SMA)
15:45 39.8767 -75.2158 255° West 136 157 100 -310 Descending FAA TRACON SMA TRACON (SMA)
15:46 39.8767 -75.2158 218° Southwest 136 157 100  Level FAA TRACON SMA TRACON (SMA)